Location: Peebles
(55.6412°N, 3.1714°W)
Time: 14:00:00
(UTC+01:00)

CHARLIE (NANOAVIONICS) - Pass Details

Date: 06 July 2022
Orbit: 506 x 524 km, 97.4° (Epoch: 16 August)

Event Time Altitude Azimuth Distance (km) Brightness Sun altitude
Rises 23:33:13 0° 223° (SW) 2,660 ? -8.7°
Reaches altitude 10° 23:37:06 10° 263° (W) 1,778 ? -8.9°
Maximum altitude 23:37:55 11° 276° (W) 1,744 ? -8.9°
Drops below altitude 10° 23:38:45 10° 288° (WNW) 1,780 ? -9.0°
Sets 23:42:40 0° 329° (NNW) 2,675 ? -9.2°
